Theta_e
308 308 308 307 307 307 307 307 307 307 307 307 307 308 309 310 311 312 313 313 313 313 313 314 314 315 316 323 324 324 326 324 321 320 327 330 333 334 333 334 335 335 337 341 340 339 338
307 307 307 306 306 305 305 305 305 306 306 307 307 308 308 309 310 311 312 313 314 314 313 313 313 314 314 321 322 327 326 325 325 322 328 330 332 331 332 332 335 336 337 341 340 340 340
305 305 304 303 304 303 303 303 304 304 304 304 305 306 307 308 309 310 311 312 313 314 314 314 313 313 317 321 324 326 327 329 327 326 329 330 330 329 330 332 334 337 338 342 342 342 341
302 302 302 302 303 303 303 304 304 304 304 304 305 305 306 306 307 309 310 312 313 314 315 314 313 312 319 322 323 324 325 329 329 328 327 330 328 328 329 330 334 337 339 342 343 343 344
303 303 303 303 303 303 303 303 303 303 304 304 305 306 306 307 307 308 311 311 313 314 314 314 313 315 324 325 324 324 324 330 330 329 328 328 326 327 328 330 333 336 341 343 344 343 346
302 302 302 302 302 302 302 302 303 303 302 303 304 304 305 306 308 308 311 312 314 314 315 313 316 328 329 326 325 323 324 328 329 330 329 327 326 327 329 331 334 337 340 344 345 343 347
302 302 302 302 302 302 302 302 302 302 303 303 303 304 305 306 307 309 313 319 323 326 321 325 325 322 324 326 325 324 324 326 328 328 329 328 326 328 330 332 334 336 342 344 343 341 343
302 302 302 302 302 302 302 302 302 303 303 303 304 304 304 306 307 311 316 321 317 316 317 321 326 326 327 326 328 326 325 327 328 326 327 326 326 329 332 333 334 335 337 344 342 342 342
302 302 302 302 302 302 302 302 302 302 303 303 303 304 304 306 307 315 314 317 315 315 318 320 320 324 327 326 327 327 325 327 329 327 326 326 327 329 332 335 335 335 336 339 341 342 342
302 302 302 302 302 302 302 302 302 302 302 302 303 303 304 306 311 311 317 316 314 315 320 325 324 323 322 326 327 327 326 327 329 328 327 326 328 329 331 334 335 336 336 338 339 341 344
304 303 304 304 304 304 303 303 302 302 302 302 302 303 303 303 306 309 315 313 314 316 328 330 327 325 323 324 326 326 327 328 329 329 328 328 327 329 330 332 334 335 336 336 337 340 341
306 305 306 305 305 304 303 303 303 302 302 302 302 303 302 304 309 311 312 313 314 321 329 330 327 326 325 323 325 326 327 328 328 329 330 329 328 329 330 332 333 335 335 336 337 337 341
303 303 303 302 302 302 302 303 302 302 302 302 302 303 303 302 307 311 312 313 319 324 329 330 328 327 326 325 324 326 327 330 330 330 331 330 329 329 329 330 333 334 334 336 341 341 338
301 301 301 302 301 303 302 302 302 302 302 302 302 303 304 308 310 311 311 316 321 326 327 331 329 328 327 327 325 325 327 328 329 330 331 332 329 328 329 329 331 334 334 337 343 342 338
302 301 301 301 301 301 301 301 302 302 302 303 302 304 307 309 311 311 312 316 322 325 329 329 330 329 328 328 327 325 326 327 329 329 332 330 329 328 329 329 330 333 334 335 336 339 339
301 302 303 302 302 302 302 301 301 302 302 302 302 307 310 309 311 312 314 316 319 323 326 325 327 330 330 329 328 327 327 328 328 330 331 331 330 329 328 329 329 331 334 335 337 342 344
300 301 300 300 300 300 300 301 301 302 302 302 306 309 310 311 311 312 315 315 316 317 318 321 323 327 329 330 330 329 328 329 329 329 330 331 331 330 330 328 328 328 331 335 336 337 341
300 300 299 300 300 300 300 300 300 300 301 304 305 309 311 312 312 312 314 314 314 316 317 320 322 323 324 326 329 331 330 329 330 330 330 331 331 333 330 329 329 329 330 333 339 343 339
298 299 299 301 301 299 300 300 299 299 300 303 306 308 309 310 312 312 312 314 315 316 317 318 320 321 322 323 327 329 331 331 330 330 331 332 332 334 331 330 330 329 329 332 334 337 342
299 299 299 298 299 298 298 298 299 300 300 302 305 311 311 309 309 311 311 313 314 315 316 318 319 319 320 321 323 326 329 331 330 330 329 332 331 335 333 331 330 330 328 329 331 336 336
298 298 298 298 298 299 299 298 298 301 300 303 306 310 309 311 312 313 315 313 315 318 318 317 319 319 320 321 322 324 327 330 330 329 329 330 336 335 332 331 331 330 329 329 331 333 333
298 299 301 302 303 303 303 302 299 298 300 304 305 307 308 310 309 311 312 313 313 315 316 318 318 319 321 321 321 324 325 328 330 330 328 330 335 334 333 332 331 331 331 330 329 329 331
300 300 300 302 302 303 303 303 302 300 300 304 305 306 307 308 309 310 311 312 312 312 313 315 317 319 322 321 319 319 319 321 324 327 330 330 333 338 336 333 331 331 331 331 331 331 330
300 300 300 300 301 302 303 303 303 302 300 302 304 305 306 308 309 310 310 311 311 311 313 312 312 316 317 317 315 317 320 321 323 326 327 334 338 335 334 336 336 333 332 331 332 333 334
299 299 300 301 302 303 304 304 303 303 302 302 303 305 306 307 307 308 308 309 309 309 310 310 310 310 311 313 316 321 322 324 325 325 327 329 331 331 336 336 334 333 333 333 334 335 335
300 301 302 303 304 305 302 302 302 302 302 302 302 303 303 306 307 306 308 307 309 309 310 310 310 310 309 313 316 321 324 324 325 325 326 328 335 336 334 335 337 337 335 332 332 337 338
302 303 304 304 304 304 302 300 301 302 302 302 303 303 303 305 304 305 306 307 307 309 310 310 311 312 310 313 315 318 321 323 325 326 327 328 333 333 334 336 334 334 334 333 337 335 333
301 302 304 303 304 303 301 300 300 300 301 302 303 304 303 303 304 304 305 305 306 307 309 308 310 311 313 312 313 315 317 319 322 326 329 329 330 329 333 335 336 332 332 335 344 336 336
302 302 303 303 304 304 301 300 300 300 300 301 302 304 304 305 304 305 305 305 305 305 306 307 309 309 312 316 317 318 319 319 324 324 326 330 330 330 331 331 335 330 332 331 331 335 341
Wind_Speed
15 16 16 17 17 17 16 16 17 17 17 18 18 18 18 19 21 22 22 20 19 18 18 17 16 15 14 11 27 19 16 13 15 21 21 21 20 18 19 19 3 11 12 15 13 16 14
17 17 17 18 18 19 19 19 19 19 19 19 20 19 19 20 20 20 22 22 21 19 18 17 16 15 14 19 13 11 10 11 12 20 22 22 18 19 22 21 9 5 8 16 18 13 13
19 19 19 19 18 19 19 20 20 21 20 21 21 21 21 21 21 20 21 22 21 19 17 16 15 14 14 26 7 12 12 14 13 19 22 22 20 19 16 14 12 11 14 11 18 14 7
19 20 20 21 21 21 20 20 21 21 22 23 23 23 22 22 22 22 21 20 20 18 16 15 13 12 14 16 19 19 12 16 15 17 21 18 19 21 21 21 11 16 14 14 17 13 13
19 19 20 21 22 23 24 23 23 24 24 23 23 24 23 22 22 23 21 18 17 16 14 12 9 8 20 10 21 19 19 18 16 17 18 18 19 21 20 15 14 16 13 16 2 14 17
20 21 21 21 21 22 24 25 25 26 26 26 25 24 25 23 22 22 18 15 12 13 12 9 12 9 25 20 16 19 20 19 18 17 18 20 17 16 16 15 15 19 16 16 16 14 20
21 22 22 23 24 24 24 24 25 27 28 28 27 26 25 23 20 16 12 9 6 1 13 17 14 19 18 14 15 19 22 21 19 22 19 25 14 18 22 23 24 20 25 25 14 10 15
21 21 22 24 24 25 26 26 27 27 28 29 29 28 26 22 16 8 11 10 5 9 14 23 34 29 26 14 12 19 24 25 20 19 20 16 22 23 24 24 24 22 17 25 18 26 14
22 21 21 22 24 25 26 26 27 28 29 29 29 28 27 24 9 7 11 8 9 13 10 20 35 36 33 20 21 23 29 29 20 22 24 24 23 23 24 25 23 23 20 16 17 16 16
22 22 23 24 25 25 26 27 28 28 29 29 30 28 27 27 4 9 6 4 10 11 6 10 17 29 35 30 23 24 29 30 19 23 23 22 23 25 25 25 23 22 20 12 13 12 12
24 23 23 23 24 25 27 27 27 28 29 29 29 27 27 14 20 10 10 15 13 7 6 7 17 10 29 37 11 31 32 32 26 19 21 24 23 25 24 27 24 21 20 13 18 13 14
23 24 24 25 26 27 28 28 28 28 28 29 29 26 26 15 16 13 15 16 9 6 10 8 11 14 24 30 36 24 30 32 28 24 21 24 27 26 25 26 25 23 19 19 18 14 12
23 24 25 26 28 29 29 29 30 29 29 28 29 26 21 20 14 8 11 10 6 10 10 13 20 17 24 25 28 25 27 26 23 23 22 22 25 24 25 24 27 25 20 13 15 13 14
24 24 24 25 26 27 29 29 30 30 31 29 29 27 20 18 15 10 10 9 13 11 26 4 17 18 23 23 25 28 26 25 27 25 18 20 19 27 21 30 23 22 22 14 17 11 15
23 23 24 24 25 27 29 29 29 29 30 30 31 24 22 14 16 11 14 14 8 18 12 18 13 15 20 19 18 26 29 26 28 29 23 19 23 21 27 24 23 23 23 23 24 16 12
23 22 23 23 23 24 25 26 29 30 30 27 32 26 23 14 14 13 12 23 20 24 16 21 19 17 18 23 26 25 26 26 29 30 28 23 15 22 25 20 23 25 18 22 16 20 18
22 23 24 24 24 25 25 25 26 28 31 24 22 15 16 8 12 18 15 22 24 41 34 13 19 19 18 19 23 19 28 22 27 27 28 27 21 18 24 23 25 18 23 23 20 17 16
23 23 24 24 24 24 24 25 26 27 29 20 16 8 8 8 13 14 16 24 30 31 32 23 19 20 19 20 20 20 25 27 28 27 30 26 18 17 20 25 25 24 26 26 14 17 15
22 22 23 23 24 25 24 24 25 25 23 21 17 25 25 16 12 13 19 24 27 27 26 23 22 19 20 21 18 16 19 24 26 23 26 22 21 16 21 17 26 25 23 25 22 17 19
23 23 23 23 24 24 23 24 23 22 19 16 11 7 13 23 21 20 21 17 20 33 26 20 16 18 20 21 20 15 20 14 16 19 6 23 22 20 17 19 18 23 24 24 24 16 16
22 23 23 23 23 23 23 23 23 20 17 12 13 11 17 10 11 16 14 19 14 17 5 11 15 18 19 19 20 21 20 20 10 5 5 8 19 21 27 28 25 24 24 26 26 22 21
23 24 23 23 24 25 24 23 21 20 17 11 17 12 19 27 17 14 12 9 12 16 15 13 14 17 14 20 20 17 17 18 14 5 14 14 14 17 24 25 28 27 23 27 27 26 24
23 24 24 24 24 25 25 23 21 18 15 13 12 17 14 17 15 13 11 15 15 14 18 12 13 14 12 17 23 24 23 23 18 15 17 19 14 15 19 22 23 23 26 23 24 24 23
25 25 26 26 26 26 26 24 24 18 15 13 15 16 8 11 11 13 16 18 17 17 8 20 19 10 19 25 30 25 23 24 19 16 17 15 16 13 14 15 25 17 22 25 24 18 21
24 25 26 26 27 26 31 24 21 18 16 14 13 10 6 8 17 19 10 11 19 12 12 17 18 18 22 21 13 11 12 16 19 17 15 16 10 13 13 18 13 23 16 22 23 23 18
25 25 26 26 28 27 21 21 17 15 15 16 12 15 9 8 10 17 19 10 11 14 13 19 21 14 18 9 9 14 13 16 13 10 17 17 11 11 14 21 27 14 20 7 6 15 15
23 23 26 27 26 25 21 18 16 16 11 15 13 12 9 10 21 17 13 8 12 12 9 12 17 17 16 8 10 14 15 18 18 22 15 14 12 14 13 15 16 12 19 20 16 6 7
22 22 23 26 25 20 20 16 16 15 10 12 13 14 16 13 23 21 17 20 12 14 11 15 11 2 13 13 12 14 14 17 18 20 21 18 12 13 12 16 17 13 17 12 9 13 7
22 21 22 27 24 21 17 17 17 15 11 12 12 11 14 14 17 19 19 20 20 21 19 18 10 16 7 7 7 6 10 13 17 16 19 18 15 14 12 12 6 12 11 16 17 6 10
Wind_Direction
0 358 356 354 352 349 346 343 341 338 336 333 329 324 314 307 304 303 299 296 292 290 290 290 289 287 288 261 252 269 263 274 257 225 215 218 230 241 260 274 109 274 111 111 104 97 94
356 354 353 351 347 345 343 342 340 338 335 333 331 327 323 317 310 304 298 294 290 287 286 286 284 279 274 260 258 243 254 255 251 212 212 217 227 236 268 291 277 218 142 131 129 121 158
353 353 352 351 348 346 343 341 340 338 336 334 331 328 326 323 318 310 301 294 289 286 285 282 280 272 255 242 228 237 242 233 217 214 213 218 226 243 246 271 252 257 202 157 132 151 145
356 354 353 353 352 349 346 343 341 338 336 334 331 329 328 326 319 315 306 297 288 283 281 281 275 264 256 260 240 232 237 220 223 217 217 221 228 246 265 276 281 239 206 188 150 175 136
358 356 354 351 349 348 347 344 342 340 337 334 332 330 328 328 322 318 311 300 288 279 275 271 264 239 259 254 223 220 220 214 209 209 214 220 229 237 247 255 254 226 225 134 123 187 115
353 351 349 348 347 345 344 343 340 339 338 338 335 332 329 329 325 323 321 305 287 270 262 255 226 264 253 227 214 211 208 208 202 203 208 215 226 229 232 235 230 213 209 138 176 198 137
347 346 345 344 343 342 341 339 338 337 336 336 337 334 331 332 327 332 343 331 301 247 222 221 212 212 275 216 223 202 200 202 200 204 204 202 216 215 222 229 240 247 137 186 251 211 185
346 344 343 342 341 339 337 337 335 333 333 332 333 335 333 332 329 354 344 329 13 316 291 252 251 248 252 208 195 204 191 200 199 205 204 190 221 220 221 221 238 250 249 180 184 228 209
344 341 339 338 337 336 335 333 331 330 329 329 329 331 332 332 327 0 317 301 328 327 272 267 234 228 224 227 211 201 191 200 199 210 204 217 214 221 226 234 229 243 249 220 163 185 199
345 340 338 337 336 334 332 331 329 327 326 326 325 329 330 330 334 304 346 334 326 323 279 250 205 224 217 219 226 219 200 200 206 213 217 220 228 211 226 230 237 242 244 257 198 187 224
348 346 345 342 340 336 334 332 329 327 325 324 322 324 321 338 311 296 316 323 315 297 279 142 171 200 195 203 194 214 199 207 220 206 210 220 223 219 215 228 231 243 251 239 255 194 239
339 339 338 337 335 334 333 332 331 328 323 322 318 318 315 317 290 293 309 304 307 232 238 178 141 183 191 198 220 190 207 204 218 237 220 230 219 233 226 218 233 237 241 242 242 247 238
337 334 332 332 331 329 329 330 329 328 327 324 314 311 302 295 261 281 311 301 224 232 229 215 165 189 196 194 208 226 199 194 212 214 229 219 235 220 233 231 223 230 232 235 235 228 242
344 341 339 339 340 340 337 334 332 328 329 329 315 312 300 288 277 281 277 246 237 241 236 333 175 189 208 193 205 217 190 209 207 218 218 219 216 228 203 231 225 222 225 231 227 226 234
343 342 342 341 338 336 336 335 333 330 330 334 322 318 292 265 248 235 237 222 222 239 284 236 233 200 198 204 197 210 224 206 209 217 221 213 227 207 231 217 232 224 222 236 248 245 250
341 343 345 345 341 337 336 334 333 332 331 339 325 319 291 226 208 223 234 234 230 269 287 325 286 238 226 203 206 196 216 207 217 210 229 239 222 221 212 214 226 236 222 230 235 246 248
346 344 343 341 339 338 337 336 335 332 332 338 329 303 273 187 219 230 238 242 249 264 281 289 294 281 267 230 214 205 215 215 211 218 212 235 244 227 210 199 218 212 232 233 233 236 256
344 342 340 337 335 335 337 338 338 337 335 346 313 274 217 235 247 237 242 244 261 268 270 271 264 280 290 299 298 243 214 216 211 208 215 218 235 247 230 204 207 225 221 233 229 228 246
342 342 340 339 337 334 332 334 336 338 339 336 310 284 269 262 253 252 251 250 245 253 254 262 267 268 274 281 296 276 283 219 215 210 211 208 224 237 244 241 196 213 228 228 236 231 225
341 339 338 335 335 336 333 332 334 335 336 332 300 290 283 222 240 263 283 282 247 236 250 260 279 264 272 270 264 276 294 287 217 218 359 219 215 225 237 228 202 200 222 232 233 233 237
334 333 332 332 332 331 328 328 328 329 330 333 298 291 333 295 323 319 302 262 303 294 268 279 254 259 264 271 263 257 266 278 257 233 266 236 232 227 227 250 239 203 210 221 236 235 234
333 332 331 330 328 325 324 323 322 323 320 303 294 316 321 297 297 286 282 289 280 281 292 273 235 256 261 251 263 295 335 275 275 294 231 238 246 252 236 233 247 257 228 213 224 235 246
332 330 328 325 323 322 322 317 311 311 315 304 301 312 311 304 299 285 335 329 262 257 255 299 302 318 293 3 340 321 306 297 296 294 294 240 228 238 234 232 247 248 244 230 214 226 237
331 330 329 326 324 321 317 314 307 291 288 284 290 303 299 289 290 318 322 309 306 340 325 312 348 320 296 318 320 301 276 265 268 273 274 279 217 234 232 226 235 252 240 248 255 239 217
331 331 328 326 327 324 324 316 307 284 273 273 278 281 284 286 291 288 356 298 306 294 272 274 274 272 294 301 311 289 255 264 243 248 258 271 236 224 235 227 247 248 247 235 237 246 255
335 335 333 331 330 329 328 323 315 296 272 260 264 267 264 291 274 343 318 299 309 326 326 294 278 261 267 281 276 265 243 228 224 228 237 255 264 244 215 228 225 220 223 136 336 241 237
336 340 338 335 337 335 334 334 325 327 277 253 250 263 256 267 275 280 281 324 314 313 295 304 332 324 234 250 252 251 248 256 238 216 211 228 240 227 224 227 244 248 248 257 244 257 249
332 331 345 345 341 337 335 330 328 322 307 246 259 242 245 260 273 280 286 286 272 271 282 340 304 321 291 241 242 247 246 250 253 253 219 218 219 229 230 240 240 248 266 268 356 354 317
331 327 327 348 338 337 336 329 330 333 311 262 275 230 245 242 261 287 272 266 267 265 264 273 267 295 327 340 18 317 272 248 241 241 250 238 221 224 236 233 289 299 324 315 307 291 348